Flag for U.S.A. Weather past 2 weeks in Stockton, California, U.S.A.

Now
68 °F

Sunny.


Feels Like: 68 °F
Forecast: 49 / 82 °F
Wind: 17 mph from West

Location: Stockton Metropolitan Airport


UV Index: 5 (Moderate)

Visibility: 10 mi


Pressure: 30.02 "Hg

Humidity: 47%

Dew point: 47 °F

Location of StocktonLocation

Historic Weather in Stockton

°F

Stockton temperature yesterday

Maximum temperature yesterday: 78 °F (at 4:55 PM)
Minimum temperature yesterday: 55 °F (at 5:55 AM)
Average temperature yesterday: 65 °F

Past Weeks' High & Low Weather Summary

 TemperatureHumidityPressure
High85 °F (Apr 8, 2:55 PM)100% (Apr 5, 3:55 AM)30.21 "Hg (Apr 5, 3:55 AM)
Low44 °F (Apr 5, 4:55 AM)20% (Apr 13, 6:55 PM)29.75 "Hg (Apr 17, 3:55 PM)
Average64 °F62%29.96 "Hg
* Reported Apr 4 5:55 PM — Apr 19 5:55 PM, Stockton, Weather by CustomWeather, © 2014

Note: Actual official high and low records may vary slightly from our data, if they occured in-between our weather recording intervals... More about our weather records

Advertising

Historic Weather Conditions — Data for Previous 24 hours

 ConditionsComfort  
Time TempWeatherWind HumidityBarometerVisibility
5:55 PM
Apr 19
72 °FSunny.15 mph43%30.01 "Hg10 mi
4:55 PM75 °FSunny.16 mph36%30.01 "Hg10 mi
3:55 PM76 °FSunny.21 mph33%30.01 "Hg10 mi
2:55 PM76 °FSunny.17 mph25%30.02 "Hg10 mi
1:55 PM76 °FSunny.15 mph23%30.03 "Hg10 mi
12:55 PM74 °FSunny.14 mph29%30.03 "Hg10 mi
11:55 AM70 °FSunny.9 mph32%30.03 "Hg10 mi
10:55 AM66 °FSunny.7 mph40%30.03 "Hg10 mi
9:55 AM63 °FSunny.8 mph43%30.02 "Hg10 mi
8:55 AM59 °FSunny.14 mph58%30.00 "Hg10 mi
7:55 AM54 °FSunny.12 mph69%29.98 "Hg10 mi
6:55 AM51 °FClear.13 mph77%29.96 "Hg10 mi
5:55 AM52 °FClear.12 mph77%29.94 "Hg10 mi
4:55 AM52 °FClear.8 mph75%29.92 "Hg10 mi
3:55 AM54 °FClear.12 mph69%29.91 "Hg10 mi
2:55 AM56 °FClear.8 mph62%29.89 "Hg10 mi
1:55 AM57 °FClear.10 mph58%29.89 "Hg10 mi
12:55 AM56 °FClear.6 mph60%29.89 "Hg10 mi
11:55 PM
Apr 18
57 °FClear.8 mph60%29.87 "Hg10 mi
10:55 PM60 °FClear.9 mph49%29.87 "Hg10 mi
9:55 PM62 °FClear.8 mph44%29.87 "Hg10 mi
8:55 PM64 °FClear.10 mph50%29.85 "Hg10 mi
7:55 PM68 °FSunny.13 mph42%29.85 "Hg10 mi
Weather by CustomWeather, © 2014

See weather overview